Address 0x08ffcb0ca216bb3c12855910ee4014191d81eeba 5

Overview

Balance:
108.03228239 BNB

Token:
My Name Tag:
Not Available

Txn Hash Method
Block
From
To
Value [Txn Fee]
0xe999a97e7337ead7b0c201b619000714bcc2e06bbdc19f86cafbd512c5ebc227Mint154229132021-12-30 11:07:0228 days 7 hrs ago0x41951a191ec0c833db8c50c713a07b376d083cc1 IN 0x08ffcb0ca216bb3c12855910ee4014191d81eeba0 BNB0.00021644
0xafec676481c2f3ee30d332145e817f20efd25d42223a4d2c5f5436da692b1000Mint147414612021-12-06 16:00:5252 days 2 hrs ago0x98e65378bf2caca6c5bc442841778123c21dde64 IN 0x08ffcb0ca216bb3c12855910ee4014191d81eeba0 BNB0.00021644
0xff01fe79450106842c23c7ed5ef944c1d631ba2aa37350d11a157ec5c65ca7aaMint147398262021-12-06 14:39:0752 days 3 hrs ago0xbdff9b0b38aa33b6e56a2430e2df0db41643eb06 IN 0x08ffcb0ca216bb3c12855910ee4014191d81eeba0 BNB0.00021644
0x01109a3eb2c9c2549451d396cbde417d03981eab21e96ca9be0a3753ac88a0bdMint147395172021-12-06 14:23:4052 days 4 hrs ago0xbdff9b0b38aa33b6e56a2430e2df0db41643eb06 IN 0x08ffcb0ca216bb3c12855910ee4014191d81eeba0 BNB0.00021644
0x18966bef1c6046570234dd1786b5e203e614c5df1195f82611192e1d14428fd9Mint147365902021-12-06 11:57:1952 days 6 hrs ago0x155fe05a334a768c316272139c0641571dbba620 IN 0x08ffcb0ca216bb3c12855910ee4014191d81eeba0 BNB0.00021644
0x7133adcd4053eecc0805566299ca51183254fb607b8ee4ec3b08f5d259eb3d21Mint147323442021-12-06 8:25:0152 days 10 hrs ago0x35d5935b29d2bd5525f927dd6768a5ef2f21bea1 IN 0x08ffcb0ca216bb3c12855910ee4014191d81eeba0 BNB0.00021644
0x67d6c7f9462d29a13faf99e97f656eafc027448d70c17a03d3f49550ea74ad4dMint147304822021-12-06 6:51:5552 days 11 hrs ago0x6144aaeb73cb22e8bfd96973c2ff71a9cea78aac IN 0x08ffcb0ca216bb3c12855910ee4014191d81eeba0 BNB0.00021644
0xcd95cac5294109335c49af70c708321acc03b8d7b4f6cb2e47d2a3f72cc89e0aMint147283392021-12-06 5:04:4652 days 13 hrs ago0xb004f5d69067b98277610a852d9b2577ce7716ad IN 0x08ffcb0ca216bb3c12855910ee4014191d81eeba0 BNB0.00021644
0x8c6c8616b8181437c23763f46008173d165081ce99965437f52ca1659685840eMint147282522021-12-06 5:00:2552 days 13 hrs ago0x55a5eb7ac3f3e344ac5c903280cc56cda450db17 IN 0x08ffcb0ca216bb3c12855910ee4014191d81eeba0 BNB0.00021644
0xe35c4cfda95082200bc461a3afb29c63b17226bde5a2223ea99856abaf99edf1Approve147256202021-12-06 2:48:4952 days 15 hrs ago0x1002a61641b8ee0ca78d534c3a36273cab071d26 IN 0x08ffcb0ca216bb3c12855910ee4014191d81eeba0 BNB0.00021944
0x20c0e1f97e761da1c7d09d6fdd33ee69373d31a3378e5c258a0c8a219ab94a96Mint147222342021-12-05 23:59:3152 days 18 hrs ago0x47e5e61f9495e977650c9480812c3ce73368bd0c IN 0x08ffcb0ca216bb3c12855910ee4014191d81eeba0 BNB0.00021644
0x6fdb6283763399cb9c4d6526a916de17b7a80aabd361698e745f352a395cf9d0Mint147196942021-12-05 21:52:3152 days 20 hrs ago0x621095e1234488dcd651795fb0a172d8902edd05 IN 0x08ffcb0ca216bb3c12855910ee4014191d81eeba0 BNB0.00021644
0x205e256ce747b51fee2da84f80211d11d6ba9e93267d94c4066ac58c51644316Mint147196862021-12-05 21:52:0752 days 20 hrs ago0x621095e1234488dcd651795fb0a172d8902edd05 IN 0x08ffcb0ca216bb3c12855910ee4014191d81eeba0 BNB0.00021644
0x92629c0d96c483e6376304707c2fa9d47d220b00f2fc6fc293f5f39eacacfaa0Mint147196762021-12-05 21:51:3752 days 20 hrs ago0x621095e1234488dcd651795fb0a172d8902edd05 IN 0x08ffcb0ca216bb3c12855910ee4014191d81eeba0 BNB0.00021644
0xba1f1c84938c68823848c97d599f10fd694d639288e4f9fd526b8fddbc83d5dcMint147191792021-12-05 21:26:4652 days 21 hrs ago0x7c93f25bf0334565d3166c0586797c34aec0c7d0 IN 0x08ffcb0ca216bb3c12855910ee4014191d81eeba0 BNB0.00021644
0xf5ebb50bbdd2c472778e5551f0f82c664dc0cf4195e171d3144d1b61b00d7482Mint147181432021-12-05 20:34:5852 days 21 hrs ago0x7dfb783ec323608efe5e4d35c623b6a81822172d IN 0x08ffcb0ca216bb3c12855910ee4014191d81eeba0 BNB0.00021644
0x3a5f2930426be399e64780bae7c89bdd52fbd182de946c6de938b83c22a59f05Mint147164862021-12-05 19:12:0752 days 23 hrs ago0xb1f39ed2e7b5f68202467c172349e5356e9c6847 IN 0x08ffcb0ca216bb3c12855910ee4014191d81eeba0 BNB0.00021644
0x26241cce34024656e31e006589f3b2bbd2b366aef4d359a6d756d3966540d75bMint147159542021-12-05 18:45:3152 days 23 hrs ago0x05399f2b7fee42757a880679dc292c7a91d1961d IN 0x08ffcb0ca216bb3c12855910ee4014191d81eeba0 BNB0.00021644
0xabdcf483aa14f57b3019bf8108a53d1430c9b162064e03082f559b74edbae431Mint147144442021-12-05 17:27:1553 days 1 hr ago0x2cafb5e3fb9dbd3956d20d3877d07934df0d10b4 IN 0x08ffcb0ca216bb3c12855910ee4014191d81eeba0 BNB0.00021644
0xc435bc1d4445542e16b9d909222388d20cb966433057454d4391171e2fccb2ffMint147143102021-12-05 17:18:1353 days 1 hr ago0x2cafb5e3fb9dbd3956d20d3877d07934df0d10b4 IN 0x08ffcb0ca216bb3c12855910ee4014191d81eeba0 BNB0.00021644
0xd1270b08375ac2132f871ed7b123026c95a59ef07b4e6f7e96b02a171dea2db1Mint147135072021-12-05 16:33:3553 days 1 hr ago0xe2aa2961990b4baf4194b080bf194aa1c1ab9850 IN 0x08ffcb0ca216bb3c12855910ee4014191d81eeba0 BNB0.00021644
0x73c004140792ff204986e3ec8d1a39257c0b6be9936334dca39936daa651d0a0Mint147133252021-12-05 16:24:2953 days 2 hrs ago0x672162d451ba2c33a1bfc0229f05a5d07f9939aa IN 0x08ffcb0ca216bb3c12855910ee4014191d81eeba0 BNB0.00021644
0xe95c59ebc9bd2c860eb65a543d1f7816b4622b8b34bdbf87b6070bcfdbfddfdcMint147130062021-12-05 16:08:3253 days 2 hrs ago0x7181a3b56d727dcc7ccfd39ff1fa851b6d1264c0 IN 0x08ffcb0ca216bb3c12855910ee4014191d81eeba0 BNB0.00021644
0x7b8a81f4fa1f947e9dc87e0e407d1aa1df7e393aa6b7d3342d0eaa1a545b2cb2Mint147120522021-12-05 15:20:5053 days 3 hrs ago0x1d0a9e25916012a3974e7e094dc683ba93f015a4 IN 0x08ffcb0ca216bb3c12855910ee4014191d81eeba0 BNB0.00021644
0x5d7c37554fb15dc100c54c2dc2174617a9543d31628435d29330445bc8dacf10Mint147116632021-12-05 15:01:2353 days 3 hrs ago0xcfb7423f334c46651fa232eb066d07cac5c39067 IN 0x08ffcb0ca216bb3c12855910ee4014191d81eeba0 BNB0.00021644
[ Download CSV Export 
Latest 5 internal transactions
Parent Txn Hash Block From To Value
0x31975178657d21179a620645a4454ea10482fcb1390e03263af4936a91c8ba6e147256272021-12-06 2:49:1052 days 15 hrs ago 0x7f6776fffc8b83215679dbda8d91136b4d7053b20x08ffcb0ca216bb3c12855910ee4014191d81eeba0 BNB
0x71ffb9a32ba7617f54ba035716e919bb43ba3e8daa7601500a18c451407c59fd142570712021-11-19 18:04:3669 days 28 mins ago 0x7f6776fffc8b83215679dbda8d91136b4d7053b20x08ffcb0ca216bb3c12855910ee4014191d81eeba0 BNB
0x80aa877ae1aec18e384a94ab213bf5b151bae10a1208ee187dcf94c6706eb09a137750632021-11-02 22:18:3885 days 20 hrs ago 0xde77e4e9d1c450b2e6311ddc55cb0706f5d6abfd0x08ffcb0ca216bb3c12855910ee4014191d81eeba0 BNB
0x37410354e87a4c71b14b57675123ee42e512104d2869bd58981c4c1d63f5379e137749832021-11-02 22:14:3885 days 20 hrs ago 0xde77e4e9d1c450b2e6311ddc55cb0706f5d6abfd0x08ffcb0ca216bb3c12855910ee4014191d81eeba0 BNB
0x8fbe02faf962f0fdd87ead1061047a663804331bd3c6b6585473800b5f06ca50126429082021-09-24 10:51:53125 days 7 hrs ago 0xde77e4e9d1c450b2e6311ddc55cb0706f5d6abfd0x08ffcb0ca216bb3c12855910ee4014191d81eeba0 BNB
[ Download CSV Export 
Loading

Contract Name:
0 BNB

Compiler Version
0

Optimization Enabled:
0 BNB

Other Settings:
-NA-
Block Transaction Gas Used Reward
Age Block Fee Address BC Fee Address Voting Power Jailed Incoming
Block Uncle Number Difficulty Gas Used Reward
Loading